Location: Recife
(8.0585°S, 34.8848°W)
Time: 06:54:58
(UTC-03:00)

Vanguard 1 Rocket - Pass Details

Date: 20 April 2026
Orbit: 655 x 4212 km, 34.3° (Epoch: 13 May)

Event Time Altitude Azimuth Distance (km) Brightness Sun altitude
Rises 05:26:35 0° 307° (NW) 5,314 10.9 0.3°
Reaches altitude 10° 05:30:50 10° 307° (NW) 3,775 10.2 1.4°
Maximum altitude 05:39:28 87° 35° (NE) 983 7.7 3.5°
Drops below altitude 10° 05:44:32 10° 124° (SE) 2,269 10.2 4.7°
Sets 05:46:31 0° 124° (SE) 3,071 10.8 5.2°
